| time (UTC) | temp C | wind direction | speed KPH | gust KPH | rain 1hr cm | rain 24hr cm | rain mn cm | humidity % | barometer mb |
| 20260502220126 | 9 | 267 | 17.7 | 0.0 | 0.00 | 0.00 | 0.00 | 37 | 995.0 |
| 20260502214559 | 10 | 271 | 16.1 | 0.0 | 0.00 | 0.00 | 0.00 | 34 | 995.1 |
| 20260502213117 | 9 | 270 | 14.5 | 0.0 | 0.00 | 0.00 | 0.00 | 36 | 994.9 |
| 20260502211559 | 9 | 266 | 16.1 | 0.0 | 0.00 | 0.00 | 0.00 | 36 | 994.9 |
| 20260502210128 | 9 | 267 | 16.1 | 0.0 | 0.00 | 0.00 | 0.00 | 36 | 994.9 |
| 20260502204558 | 9 | 271 | 12.9 | 0.0 | 0.00 | 0.00 | 0.00 | 38 | 995.2 |
| 20260502203117 | 9 | 273 | 14.5 | 0.0 | 0.00 | 0.00 | 0.00 | 35 | 995.7 |
| 20260502201558 | 9 | 273 | 14.5 | 0.0 | 0.00 | 0.00 | 0.00 | 35 | 995.7 |
| 20260502200125 | 8 | 273 | 14.5 | 0.0 | 0.00 | 0.00 | 0.00 | 35 | 995.7 |
| 20260502194558 | 8 | 271 | 14.5 | 0.0 | 0.00 | 0.00 | 0.00 | 43 | 996.0 |
| 20260502193112 | 8 | 270 | 14.5 | 0.0 | 0.00 | 0.00 | 0.00 | 43 | 996.0 |
| 20260502191559 | 8 | 274 | 16.1 | 0.0 | 0.00 | 0.00 | 0.00 | 43 | 996.0 |
| 20260502190126 | 8 | 274 | 16.1 | 0.0 | 0.00 | 0.00 | 0.00 | 43 | 996.0 |
| 20260502184558 | 8 | 277 | 14.5 | 0.0 | 0.00 | 0.00 | 0.00 | 45 | 996.1 |
| 20260502183118 | 8 | 276 | 14.5 | 0.0 | 0.00 | 0.00 | 0.00 | 41 | 996.1 |
| 20260502181557 | 8 | 279 | 12.9 | 0.0 | 0.00 | 0.00 | 0.00 | 41 | 996.1 |
| 20260502180131 | 8 | 282 | 12.9 | 0.0 | 0.00 | 0.00 | 0.00 | 41 | 996.1 |
| 20260502170122 | 8 | 273 | 11.3 | 0.0 | 0.00 | 0.00 | 0.00 | 40 | 996.6 |
| 20260502163118 | 7 | 278 | 12.9 | 0.0 | 0.00 | 0.00 | 0.00 | 40 | 995.4 |
| 20260502161558 | 7 | 276 | 12.9 | 0.0 | 0.00 | 0.00 | 0.00 | 40 | 995.4 |
| 20260502160129 | 7 | 278 | 11.3 | 0.0 | 0.00 | 0.00 | 0.00 | 40 | 995.4 |
| 20260502151559 | 6 | 287 | 11.3 | 0.0 | 0.00 | 0.00 | 0.00 | 48 | 995.8 |
| 20260502150131 | 6 | 289 | 11.3 | 0.0 | 0.00 | 0.00 | 0.00 | 48 | 995.8 |
| 20260502130127 | 2 | 332 | 8.0 | 0.0 | 0.00 | 0.00 | 0.00 | 68 | 996.2 |
| 20260502123116 | 2 | 332 | 6.4 | 0.0 | 0.00 | 0.00 | 0.00 | 79 | 996.6 |
| 20260502121558 | 1 | 337 | 6.4 | 0.0 | 0.00 | 0.00 | 0.00 | 79 | 996.6 |
| 20260502120139 | 1 | 335 | 6.4 | 0.0 | 0.00 | 0.00 | 0.00 | 79 | 996.6 |
| 20260502114558 | 0 | 328 | 4.8 | 0.0 | 0.00 | 0.00 | 0.00 | 88 | 996.4 |
| 20260502113120 | 0 | 261 | 1.6 | 0.0 | 0.00 | 0.00 | 0.00 | 90 | 996.3 |
| 20260502111558 | 0 | 216 | 1.6 | 0.0 | 0.00 | 0.00 | 0.00 | 90 | 996.3 |
| 20260502110127 | 0 | 225 | 3.2 | 0.0 | 0.00 | 0.00 | 0.00 | 90 | 996.3 |
| 20260502104558 | 0 | 209 | 3.2 | 0.0 | 0.00 | 0.00 | 0.00 | 88 | 996.1 |
| 20260502103116 | 0 | 209 | 3.2 | 0.0 | 0.00 | 0.00 | 0.00 | 90 | 996.4 |
| 20260502101558 | 0 | 203 | 3.2 | 0.0 | 0.00 | 0.00 | 0.00 | 90 | 996.4 |
| 20260502100128 | 0 | 207 | 3.2 | 0.0 | 0.00 | 0.00 | 0.00 | 90 | 996.4 |
| 20260502090127 | 0 | 262 | 1.6 | 0.0 | 0.00 | 0.00 | 0.00 | 88 | 995.9 |
| 20260502070128 | 0 | 323 | 4.8 | 0.0 | 0.00 | 0.00 | 0.00 | 79 | 995.1 |
| 20260502064558 | 0 | 312 | 4.8 | 0.0 | 0.00 | 0.00 | 0.00 | 75 | 996.1 |
| 20260502063118 | 0 | 315 | 4.8 | 0.0 | 0.00 | 0.00 | 0.00 | 75 | 996.0 |
| 20260502061558 | 0 | 321 | 4.8 | 0.0 | 0.00 | 0.00 | 0.00 | 75 | 996.0 |
| 20260502060142 | 1 | 327 | 4.8 | 0.0 | 0.00 | 0.00 | 0.00 | 75 | 996.0 |
| 20260502054558 | 1 | 333 | 4.8 | 0.0 | 0.00 | 0.00 | 0.00 | 72 | 995.2 |
| 20260502053117 | 1 | 331 | 6.4 | 0.0 | 0.00 | 0.00 | 0.00 | 74 | 995.7 |
| 20260502051557 | 1 | 323 | 6.4 | 0.0 | 0.00 | 0.00 | 0.00 | 74 | 995.7 |
| 20260502050129 | 1 | 333 | 6.4 | 0.0 | 0.00 | 0.00 | 0.00 | 74 | 995.7 |
| 20260502044559 | 1 | 325 | 6.4 | 0.0 | 0.00 | 0.00 | 0.00 | 72 | 995.2 |
| 20260502043115 | 1 | 327 | 6.4 | 0.0 | 0.00 | 0.00 | 0.00 | 74 | 995.4 |
| 20260502041558 | 1 | 333 | 6.4 | 0.0 | 0.00 | 0.00 | 0.00 | 74 | 995.4 |
| 20260502040129 | 1 | 338 | 6.4 | 0.0 | 0.00 | 0.00 | 0.00 | 74 | 995.4 |
| 20260502034557 | 2 | 339 | 8.0 | 0.0 | 0.00 | 0.00 | 0.00 | 62 | 994.9 |
| 20260502033117 | 2 | 349 | 6.4 | 0.0 | 0.00 | 0.00 | 0.00 | 68 | 994.4 |
| 20260502031557 | 2 | 352 | 9.7 | 0.0 | 0.00 | 0.00 | 0.00 | 68 | 994.3 |
| 20260502030128 | 2 | 346 | 11.3 | 0.0 | 0.00 | 0.00 | 0.00 | 68 | 994.3 |
| 20260502024556 | 2 | 329 | 11.3 | 0.0 | 0.00 | 0.00 | 0.00 | 64 | 993.8 |
| 20260502023115 | 2 | 322 | 9.7 | 0.0 | 0.00 | 0.00 | 0.00 | 66 | 994.7 |
| 20260502021556 | 3 | 311 | 9.7 | 0.0 | 0.00 | 0.00 | 0.00 | 66 | 994.8 |
| 20260502020122 | 4 | 310 | 8.0 | 0.0 | 0.00 | 0.00 | 0.00 | 66 | 994.8 |
| 20260502014556 | 4 | 311 | 6.4 | 0.0 | 0.00 | 0.00 | 0.00 | 61 | 994.7 |
| 20260502013113 | 4 | 313 | 6.4 | 0.0 | 0.00 | 0.00 | 0.00 | 61 | 994.7 |
| 20260502011555 | 4 | 326 | 9.7 | 0.0 | 0.00 | 0.00 | 0.00 | 61 | 994.7 |
| 20260502010120 | 5 | 322 | 9.7 | 0.0 | 0.00 | 0.00 | 0.00 | 61 | 994.7 |
| 20260502004555 | 5 | 322 | 9.7 | 0.0 | 0.00 | 0.00 | 0.00 | 52 | 995.0 |
| 20260502003114 | 5 | 317 | 12.9 | 0.0 | 0.00 | 0.00 | 0.00 | 57 | 995.6 |
| 20260502001556 | 5 | 314 | 12.9 | 0.0 | 0.00 | 0.00 | 0.00 | 57 | 995.6 |
| 20260502000137 | 5 | 310 | 14.5 | 0.0 | 0.00 | 0.00 | 0.00 | 57 | 995.6 |
| 20260501234558 | 5 | 298 | 12.9 | 0.0 | 0.00 | 0.00 | 0.00 | 49 | 994.1 |
| 20260501233111 | 6 | 305 | 16.1 | 0.0 | 0.00 | 0.00 | 0.00 | 50 | 995.0 |
| 20260501231557 | 6 | 299 | 14.5 | 0.0 | 0.00 | 0.00 | 0.00 | 50 | 995.0 |
| 20260501230120 | 6 | 304 | 12.9 | 0.0 | 0.00 | 0.00 | 0.00 | 50 | 995.0 |
| 20260501224557 | 7 | 305 | 12.9 | 0.0 | 0.00 | 0.00 | 0.00 | 49 | 993.8 |
| 20260501223115 | 7 | 304 | 12.9 | 0.0 | 0.00 | 0.00 | 0.00 | 51 | 994.7 |
| 20260501221557 | 7 | 284 | 9.7 | 0.0 | 0.00 | 0.00 | 0.00 | 51 | 994.7 |